User: anonymous   Login
Location: Unspecified
(0.0000°N, 0.0000°E)
Time: 19:57:37
(UTC+00:00)
Language:

COSMOS 2437 - Orbit

View from above orbital plane
View from above orbital plane
View from above satellite
View from above satellite

Ground track
Ground track

The orbit data is extracted from the following two-line orbital elements,

1 32954U 08025B   21026.27849981  .00000040  00000-0  21940-3 0  9990
2 32954  82.5035 140.7428 0019758 302.0917  57.8244 12.42708806575168
Epoch (UTC): 26 January 2021 06:41:02
Eccentricity: 0.0019758
inclination: 82.5035°
perigee height: 1479 km
apogee height: 1510 km
right ascension of ascending node: 140.7428°
argument of perigee: 302.0917°
revolutions per day: 12.42708806
mean anomaly at epoch: 57.8244°
orbit number at epoch: 57516

The dashed part of the orbit path shows where the satellite is in the earth's shadow,  

DLR